Weather History for Tucson Davis Monthan, AZ

Change the Weather History Date:

Thursday, November 22, 2012

  Actual Average Record
Temperature  
Mean Temperature 64 °F -  
Max Temperature 78 °F 70 °F 84 °F (2002)
Min Temperature 49 °F 43 °F 24 °F (1979)
Degree Days  
Heating Degree Days 2    
Growing Degree Days 14 (Base 50)    
Moisture  
Dew Point 30 °F    
Average Humidity 33    
Maximum Humidity 50    
Minimum Humidity 13    
Precipitation  
Precipitation 0.00 in - - ()
Sea Level Pressure  
Sea Level Pressure 30.02 in    
Wind  
Wind Speed 5 mph (South)    
Max Wind Speed 9 mph    
Max Gust Speed -    
Visibility 10 miles    
Events      
Averages and records for this station are not official NWS values.
T = Trace of Precipitation, MM = Missing Value Source: NWS Daily Summary

Daily Weather History Graph

Daily Weather History Graph

Search for Another Location

Airport:

Trip Planner

Search our weather history database for the weather conditions in past years. The results will help you decide how hot, cold, wet, or windy it might be!

Date:

Astronomy

Nov. 22, 2012 Rise Set
Actual Time 6:59 AM MST 5:20 PM MST
Civil Twilight 6:32 AM MST 5:46 PM MST
Nautical Twilight 6:03 AM MST 6:16 PM MST
Astronomical Twilight 5:33 AM MST 6:45 PM MST
Moon 1:52 PM MST (11/22) 1:39 AM MST (11/22)
Length of Visible Light 11h 13m
Length of Day
10h 20m
Waxing Gibbous, 72% of the Moon is Illuminated
Nov 22
Waxing Gibbous
Nov 28
Full
Dec 6
Last Quarter
Dec 13
New
Dec 19
First Quarter

Hourly Weather History & Observations

Time (MST) Temp. Dew Point Humidity Pressure Visibility Wind Dir Wind Speed Gust Speed Precip Events Conditions
12:58 AM 53.4 °F 32.2 °F 44% 29.96 in 10.0 mi ESE 6.9 mph - N/A   Clear
1:58 AM 50.9 °F 32.4 °F 49% 29.98 in 10.0 mi SE 4.6 mph - N/A   Clear
2:58 AM 51.8 °F 32.4 °F 48% 29.98 in 10.0 mi SE 8.1 mph - N/A   Clear
3:58 AM 51.1 °F 32.4 °F 49% 29.98 in 10.0 mi SE 5.8 mph - N/A   Clear
4:58 AM 49.8 °F 32.0 °F 50% 30.00 in 10.0 mi SE 5.8 mph - N/A   Clear
5:58 AM 51.3 °F 32.4 °F 48% 30.01 in 10.0 mi SE 6.9 mph - N/A   Clear
6:58 AM 49.8 °F 32.0 °F 50% 30.03 in 10.0 mi SE 5.8 mph - N/A   Clear
7:58 AM 52.7 °F 32.2 °F 46% 30.05 in 10.0 mi Calm Calm - N/A   Clear
8:58 AM 60.4 °F 33.1 °F 36% 30.07 in 10.0 mi East 2.3 mph - N/A   Clear
9:58 AM 65.1 °F 33.3 °F 31% 30.07 in 10.0 mi Calm Calm - N/A   Clear
10:58 AM 69.4 °F 32.9 °F 26% 30.06 in 10.0 mi NW 1.2 mph - N/A   Clear
11:58 AM 73.0 °F 32.5 °F 23% 30.03 in 10.0 mi Calm Calm - N/A   Clear
12:58 PM 75.9 °F 29.8 °F 18% 30.00 in 10.0 mi NW 4.6 mph - N/A   Clear
1:58 PM 77.5 °F 28.4 °F 16% 29.98 in 10.0 mi WNW 8.1 mph - N/A   Clear
2:58 PM 78.6 °F 25.0 °F 14% 29.98 in 10.0 mi WNW 9.2 mph - N/A   Clear
3:58 PM 78.3 °F 22.8 °F 13% 29.98 in 10.0 mi NW 9.2 mph - N/A   Clear
4:58 PM 75.4 °F 29.5 °F 18% 30.00 in 10.0 mi NW 9.2 mph - N/A   Clear
5:58 PM 69.1 °F 29.1 °F 23% 30.02 in 10.0 mi NW 5.8 mph - N/A   Clear
6:58 PM 68.0 °F 29.3 °F 24% 30.04 in 10.0 mi WNW 3.5 mph - N/A   Clear
7:58 PM 65.7 °F 29.5 °F 26% 30.04 in 10.0 mi West 4.6 mph - N/A   Clear
8:58 PM 59.5 °F 27.5 °F 30% 30.06 in 10.0 mi South 5.8 mph - N/A   Clear
9:58 PM 57.2 °F 27.0 °F 31% 30.08 in 10.0 mi SSE 4.6 mph - N/A   Clear
10:58 PM 54.1 °F 27.3 °F 36% 30.10 in 10.0 mi SSE 5.8 mph - N/A   Clear
11:58 PM 52.9 °F 27.5 °F 38% 30.09 in 10.0 mi SE 8.1 mph - N/A   Clear